• MPC Preparation (Info)

  • MPEC 2019-V134 : 2019 VZ4

    The following Minor Planet Electronic Circular may be linked-to from your own Web pages, but must not otherwise be redistributed electronically.

    A form allowing access to any MPEC is at the bottom of this page.


    Read MPEC 2019-V133 Read MPEC 2019-V135


    M.P.E.C. 2019-V134                             Issued 2019 November 9, 05:41 UT
    
         The Minor Planet Electronic Circulars contain information on unusual
             minor planets and routine data on comets.  They are published
        on behalf of Division F of the International Astronomical Union by the
              Minor Planet Center, Smithsonian Astrophysical Observatory,
                              Cambridge, MA 02138, U.S.A.
    
                 Prepared using the Tamkin Foundation Computer Network
    
                                  MPC@CFA.HARVARD.EDU
                URL https://www.minorplanetcenter.net/    ISSN 1523-6714
    
                                    2019 VZ4                                 
    
    
    Observations:
         K19V04Z  C2019 10 25.57198203 32 14.608+29 39 48.02         21.3 GVEV134F52
         K19V04Z  C2019 10 25.58360803 32 13.782+29 39 06.73         22.2 GVEV134F52
         K19V04Z  C2019 10 25.60692503 32 12.117+29 37 42.42         22.6 GVEV134F52
         K19V04Z* C2019 11 02.54630603 20 39.822+18 29 18.88         20.49wUEV134F52
         K19V04Z  C2019 11 02.55855903 20 38.132+18 27 53.16         20.82wUEV134F52
         K19V04Z  C2019 11 02.57084403 20 36.458+18 26 27.50         21.01wUEV134F52
         K19V04Z  C2019 11 04.52320203 16 24.911+14 21 04.31         20.2 GVEV134F51
         K19V04Z  C2019 11 04.53417903 16 23.178+14 19 34.33         20.2 GVEV134F51
         K19V04Z  C2019 11 04.54512403 16 21.460+14 18 04.41         20.0 GVEV134F51
         K19V04Z  C2019 11 08.25838 03 06 36.36 +04 30 14.7          19.8 GVEV134G96
         K19V04Z  C2019 11 08.26215 03 06 35.60 +04 29 33.6          19.9 GVEV134G96
         K19V04Z  C2019 11 08.26592 03 06 34.87 +04 28 52.8          19.9 GVEV134G96
         K19V04Z  C2019 11 08.26971 03 06 34.09 +04 28 10.7          19.8 GVEV134G96
         K19V04Z KC2019 11 08.38324 03 06 10.63 +04 07 23.7          20.2 GVEV134734
         K19V04Z KC2019 11 08.38523 03 06 10.23 +04 07 02.6          20.2 GVEV134734
         K19V04Z KC2019 11 08.38721 03 06 09.80 +04 06 40.5          20.2 GVEV134734
         K19V04Z KC2019 11 08.95858403 04 27.54 +02 20 01.0          20.4 GVEV134J95
         K19V04Z SC2019 11 08.97075703 04 25.06 +02 17 43.2          20.0 GVEV134J95
         K19V04Z KC2019 11 09.14543 03 03 53.68 +01 44 29.0          19.9 RqEV134H36
         K19V04Z KC2019 11 09.15942 03 03 50.93 +01 41 46.1          19.7 RqEV134H36
    
    Observer details:
    734 Farpoint Observatory, Eskridge.  Observers G. Hug, D. Cromer, D. Goodin.  
        Measurer D. Cromer.  0.69-m reflector + CCD.
    F51 Pan-STARRS 1, Haleakala.  Observers J. Bulger, K. Chambers, T. Lowe, E. 
       Magnier, A. Schultz, M. Willman.  Measurers S. Chastel, M. Huber, Y. 
       Ramanjooloo, R. Wainscoat, R. Weryk.  1.8-m Ritchey-Chretien + CCD.
    F52 Pan-STARRS 2, Haleakala.  Observers J. Bulger, K. Chambers, T. Dukes, T. 
       Lowe, E. Magnier, A. Schultz, M. Willman.  Measurers S. Chastel, M. Huber, 
       Y. Ramanjooloo, R. Wainscoat, R. Weryk, K. Chambers, T. de Boer, L. Denneau, 
       J. Fairlamb, H. Flewelling, C.-C. Lin, E. Magnier.  1.8-m Ritchey-Chretien + 
       CCD.
    G96 Mt. Lemmon Survey.  Observer T. A. Pruyne.  Measurers E. J. Christensen, G. 
       A. Farneth, D. C. Fuls, A. R. Gibbs, A. D. Grauer, H. Groeller, R. A. 
       Kowalski, S. M. Larson, G. J. Leonard, T. A. Pruyne, D. Rankin, R. L. Seaman,
        F. C. Shelly, K. W. Wierzchos.  1.5-m reflector + 10K CCD.
    H36 Sandlot Observatory, Scranton.  Observer G. Hug.  0.56-m reflector + CCD.
    J95 Great Shefford.  Observer P. Birtwhistle.  0.41-m f/6.3 Schmidt-Cassegrain 
       + CCD.
    
    Orbital elements:
    2019 VZ4                                                 Earth MOID = 0.1079 AU
    Epoch 2019 Apr. 27.0 TT = JDT 2458600.5                 Bell
    M 120.93888              (2000.0)            P               Q
    n   0.85993318     Peri.  301.75903     -0.91598262     -0.31356193
    a   1.0951987      Node   221.51885     +0.34845869     -0.93097402
    e   0.4043483      Incl.   22.18612     -0.19887783     -0.18699274
    P   1.15           H   23.5           G   0.15           U   7
    Residuals in seconds of arc
    191025 F52  0.0   0.4-    191104 F51  0.0   0.1+    191108 734  0.0   0.0
    191025 F52  0.1+  0.2+    191104 F51  0.1+  0.1+    191108 734  0.6-  0.4-
    191025 F52  0.1-  0.2+    191108 G96  0.3-  0.2+    191108 J95  0.1+  0.4-
    191102 F52  0.1+  0.1-    191108 G96  0.3-  0.1+    191108 J95  0.2+  0.6+
    191102 F52  0.0   0.2-    191108 G96  0.1+  0.2+    191109 H36  1.5-  0.6+
    191102 F52  0.0   0.2+    191108 G96  0.2-  0.7-    191109 H36  0.7+  0.9-
    191104 F51  0.1-  0.1-    191108 734  0.2+  0.8-
    
    Ephemeris:
    2019 VZ4                 a,e,i = 1.10, 0.40, 22                  q = 0.6524
    Date    TT    R. A. (2000) Decl.     Delta      r    Elong.  Phase     V
    2019 10 10    03 36 08.3 +38 19 14   0.3925  1.2959   132.3    34.8    23.5
    ...
    2019 10 25    03 32 47.8 +30 12 46   0.2456  1.2151   150.9    23.5    22.0
    ...
    2019 11 02    03 21 45.7 +19 31 09   0.1795  1.1674   165.9    12.0    20.8
    ...
    2019 11 08    03 07 21.4 +05 17 15   0.1413  1.1296   168.2    10.4    20.2
    2019 11 09    03 04 19.2 +02 13 06   0.1364  1.1232   165.4    12.9    20.2
    2019 11 10    03 01 04.6 -01 03 31   0.1320  1.1167   162.0    15.9    20.2
    ...
    2019 11 16    02 36 28.9 -24 05 57   0.1179  1.0769   135.9    39.7    20.6
    ...
    2019 11 24    01 44 04.9 -53 11 13   0.1340  1.0217   101.1    71.5    21.7
    ...
    2019 12 09    22 10 09.7 -75 20 55   0.2179  0.9139    64.9   102.7    23.8
    
    A. U. Tomatic                (C) Copyright 2019 MPC           M.P.E.C. 2019-V134
    


    Read MPEC 2019-V133 Read MPEC 2019-V135


    MPEC number:

    Enter an MPEC number in one of the following forms:

    • 1997-B01 (the full form)
    • J97B01 (the packed version of the full form)
    • B01 (the abbreviated form)